カタログに戻る

KUIPER-00023

運用中通信LEO
NORAD 63737·PAYLOAD·🇺🇸 United States

打ち上げ Apr 28, 2025 から Cape Canaveral Space Force Station

Loading…

次のパス (今後24時間)

TLE

最新Source: CelesTrak SupGP

元期: Sep 15, 2026, 05:21 UTC

1 63737C 25088P   26258.22303241  .00001343  00000+0  17574-3 0  2584
2 63737  51.9014 347.4364 0000522  77.9150  13.6939 14.79930426    14

AllMySatでKUIPER-00023をリアルタイム追跡

Download on the App Store